Location: Brabourne
(51.1333°N, 1.0000°E)
Time: 14:29:30
(UTC+00:00)

SJ 16-02 DEB - Visible Passes

Search period start: 23 January 2022 00:00
Search period end: 02 February 2022 00:00
Orbit: 600 x 943 km, 75.0° (Epoch: 21 January)

Date Brightness Start Highest point End Pass type
(mag) Time Alt. Az. Time Alt. Az. Time Alt. Az.
23 Jan ? 17:38:05 10° W 17:41:37 18° NW 17:45:23 10° N visible
24 Jan ? 17:00:56 10° WSW 17:05:10 25° NW 17:09:44 10° N visible
25 Jan ? 18:11:50 10° NW 18:12:48 10° NNW 18:13:45 10° NNW visible
26 Jan ? 17:33:23 10° WNW 17:36:08 14° NW 17:38:58 10° N visible
29 Jan ? 17:29:21 10° NW 17:30:42 11° NNW 17:32:05 10° NNW visible
